TimeEDT,TemperatureF,Dew PointF,Humidity,Sea Level PressureIn,VisibilityMPH,Wind Direction,Wind SpeedMPH,Gust SpeedMPH,PrecipitationIn,Events,Conditions,WindDirDegrees,DateUTC
12:15 AM,50.0,35.6,58,30.07,10.0,Calm,Calm,-,N/A,,Clear,0,2013-05-13 04:15:00
12:35 AM,44.6,37.4,76,30.07,10.0,Calm,Calm,-,N/A,,Clear,0,2013-05-13 04:35:00
12:55 AM,44.6,37.4,76,30.07,10.0,Calm,Calm,-,N/A,,Clear,0,2013-05-13 04:55:00
1:15 AM,42.8,37.4,81,30.07,10.0,Calm,Calm,-,N/A,,Clear,0,2013-05-13 05:15:00
1:35 AM,42.8,37.4,81,30.07,10.0,Calm,Calm,-,N/A,,Clear,0,2013-05-13 05:35:00
1:55 AM,42.8,39.2,87,30.07,10.0,Calm,Calm,-,N/A,,Clear,0,2013-05-13 05:55:00
2:15 AM,42.8,41.0,93,30.08,10.0,Calm,Calm,-,N/A,,Clear,0,2013-05-13 06:15:00
2:35 AM,42.8,37.4,81,30.08,10.0,Calm,Calm,-,N/A,,Clear,0,2013-05-13 06:35:00
2:55 AM,42.8,37.4,81,30.08,10.0,Calm,Calm,-,N/A,,Clear,0,2013-05-13 06:55:00
3:15 AM,41.0,37.4,87,30.08,10.0,Calm,Calm,-,N/A,,Clear,0,2013-05-13 07:15:00
3:35 AM,41.0,37.4,87,30.09,10.0,Calm,Calm,-,N/A,,Clear,0,2013-05-13 07:35:00
3:55 AM,41.0,37.4,87,30.09,10.0,Calm,Calm,-,N/A,,Clear,0,2013-05-13 07:55:00
4:15 AM,39.2,37.4,93,30.10,10.0,Calm,Calm,-,N/A,,Clear,0,2013-05-13 08:15:00
4:35 AM,39.2,37.4,93,30.10,10.0,Calm,Calm,-,N/A,,Clear,0,2013-05-13 08:35:00
4:55 AM,41.0,37.4,87,30.11,10.0,Calm,Calm,-,N/A,,Clear,0,2013-05-13 08:55:00
5:15 AM,39.2,37.4,93,30.11,10.0,Calm,Calm,-,N/A,,Clear,0,2013-05-13 09:15:00
5:35 AM,39.2,37.4,93,30.11,10.0,Calm,Calm,-,N/A,,Clear,0,2013-05-13 09:35:00
5:55 AM,39.2,37.4,93,30.12,10.0,Calm,Calm,-,N/A,,Clear,0,2013-05-13 09:55:00
6:15 AM,37.4,35.6,93,30.13,10.0,Calm,Calm,-,N/A,,Clear,0,2013-05-13 10:15:00
6:35 AM,39.2,37.4,93,30.13,10.0,Calm,Calm,-,N/A,,Clear,0,2013-05-13 10:35:00
6:55 AM,37.4,37.4,100,30.14,10.0,Calm,Calm,-,N/A,,Clear,0,2013-05-13 10:55:00
7:15 AM,41.0,37.4,87,30.15,10.0,Calm,Calm,-,N/A,,Clear,0,2013-05-13 11:15:00
7:35 AM,42.8,37.4,81,30.15,10.0,Calm,Calm,-,N/A,,Clear,0,2013-05-13 11:35:00
7:55 AM,46.4,37.4,71,30.16,10.0,Calm,Calm,-,N/A,,Clear,0,2013-05-13 11:55:00
8:15 AM,50.0,37.4,62,30.16,10.0,Calm,Calm,-,N/A,,Clear,0,2013-05-13 12:15:00
8:35 AM,50.0,35.6,58,30.17,10.0,Calm,Calm,-,N/A,,Clear,0,2013-05-13 12:35:00
8:55 AM,53.6,35.6,51,30.18,10.0,NW,3.5,-,N/A,,Clear,310,2013-05-13 12:55:00
9:15 AM,53.6,33.8,47,30.18,10.0,NW,3.5,-,N/A,,Clear,310,2013-05-13 13:15:00
9:35 AM,55.4,32.0,41,30.18,10.0,Calm,Calm,-,N/A,,Clear,0,2013-05-13 13:35:00
9:55 AM,57.2,30.2,36,30.18,10.0,WNW,5.8,-,N/A,,Clear,290,2013-05-13 13:55:00
10:15 AM,57.2,30.2,36,30.18,10.0,WNW,4.6,-,N/A,,Clear,290,2013-05-13 14:15:00
10:35 AM,57.2,30.2,36,30.19,10.0,West,6.9,-,N/A,,Clear,270,2013-05-13 14:35:00
10:55 AM,59.0,32.0,36,30.18,10.0,West,6.9,-,N/A,,Clear,280,2013-05-13 14:55:00
11:15 AM,59.0,30.2,34,30.18,10.0,WNW,4.6,-,N/A,,Clear,300,2013-05-13 15:15:00
11:35 AM,59.0,30.2,34,30.18,10.0,NNW,3.5,-,N/A,,Clear,330,2013-05-13 15:35:00
11:55 AM,60.8,30.2,31,30.18,10.0,Calm,Calm,-,N/A,,Clear,0,2013-05-13 15:55:00
12:15 PM,60.8,30.2,31,30.17,10.0,Calm,Calm,-,N/A,,Clear,0,2013-05-13 16:15:00
12:35 PM,60.8,30.2,31,30.17,10.0,WSW,9.2,-,N/A,,Clear,250,2013-05-13 16:35:00
12:55 PM,62.6,30.2,30,30.15,10.0,WNW,4.6,-,N/A,,Clear,300,2013-05-13 16:55:00
1:15 PM,62.6,30.2,30,30.14,10.0,WNW,6.9,-,N/A,,Clear,300,2013-05-13 17:15:00
1:35 PM,64.4,28.4,26,30.13,10.0,WSW,9.2,17.3,N/A,,Clear,250,2013-05-13 17:35:00
1:55 PM,64.4,30.2,28,30.12,10.0,SW,4.6,-,N/A,,Scattered Clouds,230,2013-05-13 17:55:00
2:15 PM,64.4,26.6,24,30.12,10.0,WSW,5.8,-,N/A,,Scattered Clouds,250,2013-05-13 18:15:00
2:35 PM,66.2,26.6,23,30.11,10.0,WSW,6.9,16.1,N/A,,Scattered Clouds,250,2013-05-13 18:35:00
2:55 PM,66.2,23.0,19,30.10,10.0,WNW,4.6,-,N/A,,Clear,290,2013-05-13 18:55:00
3:15 PM,68.0,23.0,18,30.10,10.0,West,12.7,17.3,N/A,,Clear,260,2013-05-13 19:15:00
3:35 PM,68.0,21.2,17,30.09,10.0,West,6.9,11.5,N/A,,Clear,280,2013-05-13 19:35:00
4:15 PM,68.0,21.2,17,30.07,10.0,WNW,10.4,-,N/A,,Clear,290,2013-05-13 20:15:00
4:35 PM,68.0,21.2,17,30.06,10.0,NW,5.8,24.2,N/A,,Clear,320,2013-05-13 20:35:00
4:55 PM,68.0,23.0,18,30.06,10.0,WNW,5.8,-,N/A,,Clear,300,2013-05-13 20:55:00
5:15 PM,68.0,23.0,18,30.06,10.0,WNW,5.8,-,N/A,,Clear,300,2013-05-13 21:15:00
5:35 PM,68.0,23.0,18,30.06,10.0,WNW,6.9,-,N/A,,Clear,290,2013-05-13 21:35:00
5:55 PM,68.0,23.0,18,30.06,10.0,West,9.2,-,N/A,,Clear,270,2013-05-13 21:55:00
6:15 PM,66.2,21.2,18,30.06,10.0,NW,6.9,-,N/A,,Clear,320,2013-05-13 22:15:00
6:35 PM,66.2,23.0,19,30.06,10.0,NW,5.8,-,N/A,,Clear,310,2013-05-13 22:35:00
6:55 PM,64.4,23.0,21,30.06,10.0,WNW,5.8,-,N/A,,Clear,290,2013-05-13 22:55:00
7:35 PM,62.6,26.6,26,30.08,10.0,NW,5.8,-,N/A,,Clear,310,2013-05-13 23:35:00
7:55 PM,60.8,26.6,27,30.08,10.0,WNW,3.5,-,N/A,,Clear,300,2013-05-13 23:55:00
8:15 PM,59.0,28.4,31,30.10,10.0,Calm,Calm,-,N/A,,Clear,0,2013-05-14 00:15:00
8:35 PM,59.0,28.4,31,30.11,10.0,NW,3.5,-,N/A,,Clear,320,2013-05-14 00:35:00
8:55 PM,59.0,26.6,29,30.13,10.0,WNW,3.5,-,N/A,,Clear,300,2013-05-14 00:55:00
9:15 PM,59.0,26.6,29,30.13,10.0,West,3.5,-,N/A,,Clear,270,2013-05-14 01:15:00
9:35 PM,55.4,26.6,33,30.14,10.0,West,3.5,-,N/A,,Clear,270,2013-05-14 01:35:00
9:55 PM,53.6,28.4,38,30.15,10.0,Calm,Calm,-,N/A,,Clear,0,2013-05-14 01:55:00
10:15 PM,51.8,35.6,54,30.16,10.0,Calm,Calm,-,N/A,,Clear,0,2013-05-14 02:15:00
10:35 PM,50.0,32.0,50,30.17,10.0,Calm,Calm,-,N/A,,Clear,0,2013-05-14 02:35:00
10:55 PM,48.2,33.8,58,30.18,10.0,Calm,Calm,-,N/A,,Clear,0,2013-05-14 02:55:00
11:15 PM,46.4,35.6,66,30.18,10.0,Calm,Calm,-,N/A,,Clear,0,2013-05-14 03:15:00
11:35 PM,50.0,32.0,50,30.18,10.0,Calm,Calm,-,N/A,,Clear,0,2013-05-14 03:35:00
11:55 PM,44.6,33.8,66,30.19,10.0,Calm,Calm,-,N/A,,Clear,0,2013-05-14 03:55:00